Regional Weather Roundup
Issued by NWS

Home | Current Version | Previous Version | Graphics & Text | Print | Product List | Glossary On
Versions: 1 2 3 4 5 6 7 8 9 10 11 12 13 14 15 16 17 18 19 20 21 22 23 24 25 26 27 28 29 30 31 32 33 34 35 36 37 38 39 40 41 42 43 44 45 46 47 48 49 50
000
ASUS45 KBOU 030810
RWRCO

WEATHER ROUNDUP FOR COLORADO
NATIONAL WEATHER SERVICE DENVER/BOULDER CO
200 AM MDT FRI JUL 03 2015

NOTE: "FAIR" INDICATES FEW OR NO CLOUDS BELOW 12000 FEET WITH NO
SIGNIFICANT WEATHER AND/OR OBSTRUCTIONS TO VISIBILITY.

COZ001>005-013-030-031-030900-
...NORTHWEST COLORADO...

CITY           SKY/WX    TMP DP  RH WIND       PRES   REMARKS
CRAIG          MOCLDY    67  44  43 E12       30.17F
HAYDEN         MOCLDY    63  41  45 E8        30.20F
MEEKER         PTCLDY    64  45  49 E7        30.18R
MOUNT WERNER   NOT AVBL
STEAMBOAT SPGS MOCLDY    60  44  56 N3        30.24S
WALDEN         PTCLDY    50  46  87 SE5       30.35S
$$

COZ006>008-011-030900-
...WEST CENTRAL VALLEYS...

CITY           SKY/WX    TMP DP  RH WIND       PRES   REMARKS
GRAND JUNCTION PTCLDY    76  49  38 SE10      30.01R
MONTROSE       PTCLDY    74  48  39 E13G24    30.12S
EAGLE          PTCLDY    61  46  59 SE5       30.25S
RIFLE          CLEAR     66  41  40 S5        30.10S
DELTA          PTCLDY    78  47  33 NE10      30.07F
NUCLA          PTCLDY    70  46  43 NE6       30.18R
$$

COZ017>023-064>068-030900-
...SOUTHWEST COLORADO...

CITY           SKY/WX    TMP DP  RH WIND       PRES   REMARKS
DURANGO        MOCLDY    60  51  72 N10       30.28F
CORTEZ         CLEAR     66  54  65 W3        30.19F
PAGOSA SPRINGS MOCLDY    57  55  95 CALM      30.36F
TELLURIDE      MOCLDY    62  46  57 SE3       30.42F
WOLF CREEK PAS NOT AVBL
$$

COZ009-010-012-014-032>034-037-058>063-030900-
...CENTRAL COLORADO...

CITY           SKY/WX    TMP DP  RH WIND       PRES   REMARKS
ASPEN          CLEAR     55  42  61 SW8       30.30S
BUENA VISTA    CLEAR     50  47  89 W3        30.40S
COPPER MTN     PTCLDY    54  37  54 S6        30.64S
BERTHOUD PASS  MOCLDY    43  34  70 W7        30.67F
COTTONWOOD PAS NOT AVBL
GUNNISON       CLEAR     55  45  67 N8        30.37F
KREMMLING      PTCLDY    54  41  62 CALM      30.32S
LEADVILLE      CLEAR     43  43 100 SW5       30.49F
MONARCH PASS   FOG       45  41  87 NE7       30.74S VSB 1
SALIDA         PTCLDY    55  49  81 SW7       30.44F
SUNLIGHT       MOCLDY    55  41  58 NE5       30.55S
WILKERSON PASS PTCLDY    45  41  87 SW8       30.61F
$$

COZ069>075-030900-
...SAN LUIS VALLEY/SANGRE DE CRISTO MOUNTAINS...

CITY           SKY/WX    TMP DP  RH WIND       PRES   REMARKS
ALAMOSA        MOCLDY    52  50  93 CALM      30.33F
LA VETA PASS   CLOUDY    48  46  93 MISG      30.51F
SAGUACHE       CLEAR     50  48  93 NW5       30.38F
$$

COZ035-036-038>040-030900-
...NORTHERN COLORADO FRONT RANGE...

CITY           SKY/WX    TMP DP  RH WIND       PRES   REMARKS
DENVER INTL AP MOCLDY    62  57  83 S6        30.19F
DMNS CITY PARK   N/A     61  59  91 E7        30.18F
AURORA         MOCLDY    59  58  96 S6        30.21F
FRONT RANGE AP PTCLDY    61  57  88 S7        30.20F
ERIE MUNI ARPT PTCLDY    61  59  94 CALM      30.17F
BOULDER MUN AP PTCLDY    63  55  77 SW3       30.18F
CENTENNIAL     MOCLDY    59  57  93 S8        30.22F
BROOMFIELD     PTCLDY    61  57  88 W3        30.20F
FORT COLLINS   PTCLDY    61  57  88 SE6       30.19F
LONGMONT       PTCLDY    60  57  89 CALM      30.19F
$$

COZ041-046-047-076>085-087-088-030900-
...PIKES PEAK/PALMER DIVIDE AND SOUTHERN FOOTHILLS...

CITY           SKY/WX    TMP DP  RH WIND       PRES   REMARKS
COLO. SPRINGS  MOCLDY    62  52  69 N5        30.25F
A. F. ACADEMY  MOCLDY    58  54  88 N3        30.26F
ELLICOTT       MOCLDY   N/A N/A N/A N5        30.23F
FALCON         MOCLDY    56  53  90 W6        30.30F
FORT CARSON    NOT AVBL
LIMON          CLEAR     56  55  97 NE5       30.20F
MONUMENT HILL  NOT AVBL
TRINIDAD       MOCLDY    61  58  90 W8        30.23S
$$

COZ042>045-048>051-090-091-030900-
...NORTHEAST COLORADO...

CITY           SKY/WX    TMP DP  RH WIND       PRES   REMARKS
GREELEY ARPT   PTCLDY    61  59  94 E3        30.17F
AKRON          CLOUDY    64  58  80 NE20G31   30.18R
BURLINGTON     PTCLDY    64  59  83 SE7       30.13S
WRAY           CLEAR     61  56  84 CALM      30.10S
STERLING       NOT AVBL
HOLYOKE        CLEAR     61  57  88 W7        30.11S
FORT MORGAN    PTCLDY    60  57  89 NE7       30.18R
$$

COZ086-089-092>099-030900-
...SOUTHEAST COLORADO...

CITY           SKY/WX    TMP DP  RH WIND       PRES   REMARKS
PUEBLO         CLOUDY    65  55  70 W6        30.17F
LA JUNTA       CLOUDY    69  53  56 MISG      30.12F
LAMAR          LGT RAIN  68  60  75 N16G22    30.10R
SPRINGFIELD      N/A     63  62  97 W3        30.13F
$$


USA.gov is the U.S. government's official web portal to all federal, state and local government web resources and services.